GFSSGP_850_rhum_261.txt.gz
RH
24 23 28 20 14 10 8 5 3 4 5 6 5 4 6 8 13 29 34 36 33 54 20 23 45 53 61 65 66 64 65 62 49 56 53 39 26 24 32 32 28 31 24 38 48 54 55 48 40
42 28 24 17 15 10 8 5 5 4 7 9 9 9 8 8 10 35 35 43 40 58 20 19 42 47 58 63 65 65 66 63 54 60 54 34 22 20 23 25 27 26 26 35 49 58 54 50 39
36 29 20 15 14 12 7 6 5 4 7 8 11 12 16 11 10 19 40 44 42 58 24 16 32 45 57 61 65 65 65 63 58 62 53 29 20 18 18 22 26 24 29 43 55 57 55 49 46
32 24 20 19 15 9 8 7 8 6 6 9 11 10 16 28 29 26 47 42 44 55 58 16 24 42 55 59 63 64 62 61 63 62 46 22 17 18 18 24 26 25 36 46 55 62 60 54 48
32 22 20 17 15 10 8 8 8 8 7 9 10 9 12 23 41 44 49 44 47 53 60 21 23 35 50 57 60 61 56 60 66 62 32 19 16 17 21 26 26 29 39 44 54 56 64 61 52
24 20 20 16 13 10 9 10 11 10 8 8 9 8 11 41 38 44 51 49 51 55 64 28 24 31 40 50 52 54 54 59 64 51 26 20 17 16 22 26 26 33 41 42 47 52 61 57 54
24 18 19 14 12 11 10 10 11 11 8 8 7 7 18 39 53 51 54 54 54 58 66 27 32 31 36 40 42 47 50 53 55 28 22 20 18 17 22 27 28 34 41 40 42 48 58 58 59
25 18 19 16 16 13 9 12 12 12 9 8 8 8 12 44 61 58 58 59 59 63 84 31 32 34 39 39 33 36 42 49 30 23 21 20 19 20 23 26 30 36 38 40 42 46 52 56 56
24 26 24 19 15 13 11 13 12 12 11 9 10 12 31 48 57 57 60 63 63 70 81 70 41 36 38 37 31 24 38 28 26 23 22 22 21 22 25 28 28 33 36 37 39 40 45 52 58
23 24 20 13 13 13 13 13 15 14 12 12 11 15 34 43 56 58 59 64 68 72 75 72 71 48 40 54 27 27 29 26 25 26 24 24 42 32 47 28 32 32 34 36 36 35 34 37 47
21 22 16 14 12 13 16 16 17 15 14 12 12 12 21 37 43 60 58 61 66 71 72 66 72 67 64 63 28 31 25 30 30 25 25 58 68 74 72 41 30 32 33 34 32 30 30 53 47
19 17 15 15 15 14 15 18 19 18 16 14 14 13 14 20 24 41 55 55 62 66 70 65 70 75 65 61 37 64 57 51 65 55 24 64 68 71 67 67 50 38 30 64 44 36 55 60 56
15 14 15 17 17 15 16 17 19 19 19 18 17 18 17 16 19 25 42 54 55 61 66 65 69 79 68 69 67 65 65 68 65 70 29 66 70 71 65 63 60 62 53 60 58 53 60 64 65
16 17 18 21 22 21 20 20 18 17 16 18 19 19 20 20 20 21 32 43 53 56 63 66 69 80 79 70 69 69 66 67 66 71 68 71 69 67 65 61 56 55 52 53 56 54 60 60 66
16 21 18 15 13 14 14 18 21 19 16 15 14 16 18 18 19 20 20 20 32 52 57 68 70 78 84 75 73 71 70 68 72 71 78 66 60 64 66 62 59 54 52 54 57 59 58 59 67
13 11 11 6 5 7 9 14 10 15 17 15 13 13 16 16 17 17 18 18 18 44 53 66 70 76 85 78 77 73 73 74 75 73 80 59 51 68 64 64 64 54 55 56 57 60 61 66 72
12 12 8 6 4 4 9 12 8 11 16 18 16 12 13 14 14 17 18 17 17 32 55 61 73 76 85 83 76 76 74 78 76 77 80 71 62 73 59 63 64 58 58 60 59 62 61 67 71
14 11 9 9 6 5 7 8 8 11 14 16 15 15 13 14 14 14 16 17 17 28 46 62 72 79 86 88 82 79 76 80 76 78 80 85 66 71 50 61 63 63 60 62 59 58 60 65 67
16 17 16 12 9 10 10 9 8 9 12 15 16 15 14 14 14 14 12 15 17 19 37 63 72 82 90 90 88 84 78 81 78 76 80 87 70 69 48 60 62 65 62 58 59 60 62 67 67
23 23 21 16 12 13 12 12 10 9 8 9 12 16 16 16 15 15 16 17 17 18 31 55 72 84 90 93 88 85 84 80 76 77 81 91 89 83 55 48 61 61 65 59 61 62 64 70 69
26 27 24 21 17 16 18 19 16 12 11 10 10 11 14 18 18 17 16 16 20 20 30 51 67 80 89 92 92 86 78 77 79 80 85 90 94 86 67 39 61 64 56 60 58 49 55 71 70
33 22 24 24 23 29 16 24 14 10 8 7 7 9 12 13 16 20 20 15 19 24 36 53 64 75 89 92 91 84 75 76 78 83 94 93 91 94 90 70 46 70 52 60 53 54 42 62 69
31 24 26 27 28 27 24 25 18 12 12 10 9 9 8 9 13 15 18 20 16 20 45 57 67 74 88 90 90 84 78 74 75 91 99 94 92 92 94 90 72 66 65 45 58 65 57 51 63
24 28 28 26 30 52 29 24 20 15 12 10 8 7 10 15 16 16 16 16 18 18 41 60 69 72 83 88 88 84 82 74 76 90 92 94 81 90 88 90 82 69 61 45 50 54 54 53 49
39 49 65 52 61 65 26 24 17 13 20 15 16 16 12 8 12 18 15 14 18 18 28 58 69 71 75 82 87 86 85 81 78 83 87 94 80 76 87 77 77 82 69 53 50 60 59 49 60
30 38 82 86 60 42 20 23 29 33 33 34 38 43 48 54 53 19 18 19 15 20 20 45 56 72 71 80 88 88 88 88 79 76 80 74 74 46 85 62 51 60 63 66 61 62 58 61 49
32 52 42 64 50 57 27 28 36 40 27 29 32 41 50 61 70 64 38 20 20 18 20 22 48 64 71 75 86 92 91 92 90 79 72 69 65 58 50 53 47 52 60 57 59 58 62 68 70
41 33 74 64 73 66 31 29 54 38 43 24 34 41 53 64 71 70 68 42 21 20 20 22 32 53 67 72 83 92 88 92 88 81 77 74 64 66 66 63 49 49 49 59 62 58 52 57 58
38 51 91 61 62 88 66 35 24 56 28 26 36 41 56 73 80 78 78 50 40 23 20 22 25 43 58 70 76 90 91 93 96 88 74 66 66 74 74 62 63 66 67 61 65 55 63 57 59
25 78 58 72 68 60 55 43 18 24 23 33 38 50 64 85 94 86 86 54 44 35 23 22 25 27 52 64 72 83 78 90 94 68 69 65 68 69 68 73 71 73 77 77 68 64 64 66 61

GFSSGP_850_rhum_267.txt.gz
RH
20 25 28 33 33 31 27 18 10 10 9 8 7 8 9 25 38 52 41 38 39 16 22 37 48 52 53 56 57 54 45 51 51 37 19 26 27 29 24 24 34 42 44 37 25 26 26 41 56
26 31 32 31 33 36 29 13 11 10 8 8 8 8 16 34 35 37 34 38 35 12 22 37 47 49 52 55 58 59 52 50 54 40 20 27 28 31 26 28 39 43 47 37 24 26 38 60 65
27 33 32 34 33 34 25 13 8 6 6 8 10 9 18 37 36 38 34 40 32 12 25 35 43 47 51 54 60 62 59 51 56 42 22 27 30 30 27 30 39 49 50 37 28 27 42 61 65
40 37 28 33 34 25 18 15 9 9 6 8 9 11 30 33 38 36 40 40 35 14 28 37 46 44 55 54 60 64 63 54 58 44 23 23 26 27 28 31 40 52 53 42 38 30 44 59 62
36 35 40 37 30 21 16 12 8 10 9 8 8 12 33 38 39 37 38 40 40 16 30 38 48 48 54 57 58 63 64 56 59 46 23 21 22 27 28 29 44 54 56 49 44 43 52 59 60
34 28 38 38 28 19 14 10 10 10 10 9 8 8 32 38 40 43 39 39 41 18 33 42 50 52 55 58 58 59 60 57 56 46 22 20 21 24 25 27 43 54 60 59 47 52 57 62 65
34 41 42 34 28 22 17 12 13 12 11 11 10 12 52 43 44 42 41 40 43 24 34 44 50 55 56 59 61 57 53 52 49 41 21 18 19 24 24 26 39 49 53 56 48 44 50 61 62
28 32 36 32 29 24 15 14 12 11 12 11 11 16 63 48 45 46 45 46 48 49 31 42 48 54 58 60 64 61 48 42 44 33 18 17 18 24 24 25 32 38 45 53 50 44 47 52 65
30 40 43 35 28 22 16 16 12 12 12 12 11 41 47 38 46 48 49 52 55 55 53 39 46 54 57 59 65 65 55 41 39 32 16 16 17 22 24 25 31 33 35 40 48 48 45 50 64
30 41 34 24 20 19 15 15 14 14 14 14 13 38 30 34 47 50 51 52 58 58 59 54 41 51 56 59 63 66 64 51 42 27 16 15 15 18 22 24 31 35 32 35 38 44 41 47 70
18 36 28 23 19 18 17 15 13 14 17 14 16 17 27 44 49 52 54 53 55 59 61 63 46 47 54 56 60 62 62 55 46 29 19 16 15 17 19 21 26 32 33 31 31 34 37 37 65
20 15 14 16 16 15 16 13 15 14 14 14 15 16 17 32 41 44 54 56 57 61 60 65 57 40 51 51 55 56 56 55 42 28 21 18 15 17 18 19 19 22 27 28 28 27 28 36 54
13 13 10 10 11 12 14 18 19 17 15 14 14 15 16 17 19 35 42 54 57 59 62 60 63 40 47 48 53 51 54 47 43 26 23 19 19 15 16 19 20 19 21 24 25 26 46 51 55
14 14 13 12 12 12 14 14 14 17 17 17 16 15 15 15 16 18 19 22 57 60 64 65 59 40 44 47 51 49 49 47 44 26 23 20 19 22 18 20 21 21 20 20 21 24 44 54 61
18 19 16 13 12 13 11 17 17 14 13 14 14 16 18 17 15 14 16 18 31 56 62 67 62 54 42 48 57 51 45 47 42 27 26 24 22 33 27 28 32 20 21 21 22 31 46 46 60
23 21 24 14 11 9 10 13 11 10 12 12 11 11 11 16 16 14 13 16 18 44 59 71 72 64 53 45 58 69 47 43 42 26 26 29 30 38 42 44 51 29 38 41 40 50 56 50 57
25 29 24 19 13 14 12 13 10 8 7 6 8 11 12 13 15 14 13 14 16 18 43 55 70 66 60 58 54 70 64 42 36 34 27 31 34 55 54 52 48 46 47 54 53 56 59 52 65
38 32 26 24 18 15 16 16 13 11 10 9 8 8 12 13 14 16 15 12 14 17 18 44 63 64 63 61 61 72 70 55 49 50 40 42 35 46 60 64 49 50 57 56 56 53 54 50 66
25 26 26 21 17 18 19 18 16 12 11 10 10 9 9 8 9 13 15 15 16 13 15 36 63 63 64 67 68 66 75 73 68 61 62 43 50 40 56 63 56 54 56 56 53 53 52 59 69
25 27 26 21 18 22 23 22 17 14 14 12 12 12 11 11 9 8 9 10 13 17 14 20 44 59 64 65 64 62 61 75 72 72 69 66 56 56 51 57 56 49 55 56 55 49 51 59 69
27 27 30 34 28 22 25 27 21 17 16 15 12 10 10 9 9 9 8 8 9 11 14 26 36 60 61 65 66 70 73 79 77 75 77 73 69 60 56 42 52 53 53 53 53 51 45 52 64
34 25 30 43 50 64 34 36 22 18 17 18 18 22 24 20 18 15 9 10 10 9 11 16 45 56 58 67 69 67 74 79 79 72 79 79 75 68 61 51 43 50 56 54 50 47 49 44 54
45 31 43 47 50 51 41 39 25 18 45 40 30 36 42 44 47 50 42 25 15 21 17 12 14 61 68 67 66 70 70 80 76 72 76 83 82 77 70 64 48 48 53 54 53 50 47 45 40
28 34 41 48 58 82 41 77 62 75 75 44 35 35 37 48 52 50 49 48 34 33 27 24 22 16 57 69 69 71 67 76 78 75 75 80 82 82 78 71 65 46 46 58 53 51 44 39 43
32 55 90 90 84 82 48 61 94 96 57 48 54 53 50 52 60 63 56 50 53 47 41 35 34 24 23 72 70 74 71 71 69 72 76 79 82 86 83 74 74 67 50 48 56 55 50 40 40
35 49 91 95 92 73 39 41 99 69 62 56 54 48 66 62 70 73 75 69 69 53 50 42 39 38 28 50 74 68 78 75 70 74 78 78 83 80 82 80 74 72 66 53 55 59 52 46 38
42 76 58 83 64 80 46 72 96 38 34 39 43 60 70 78 80 84 83 84 85 70 63 59 51 43 43 42 71 71 76 80 74 71 77 80 80 84 86 84 78 75 72 65 59 63 54 52 42
39 38 82 89 95 94 54 53 88 37 29 42 56 69 75 73 82 85 98 90 95 86 85 85 67 57 52 55 53 94 64 72 76 71 77 82 83 86 88 87 83 82 79 73 67 66 69 62 55
44 90 86 84 94 96 92 64 68 35 29 52 69 70 82 76 86 97 99 88 89 92 92 86 71 61 58 66 65 57 98 68 67 83 71 80 86 83 83 85 83 82 82 83 77 71 76 75 69
77 87 60 96 90 85 78 65 29 30 25 48 76 77 89 85 89 96 100 98 88 96 98 99 90 78 70 79 91 79 64 91 63 77 82 82 84 80 82 82 85 84 83 87 86 77 81 84 80

GFSSGP_850_rhum_273.txt.gz
RH
22 24 27 28 29 37 32 23 16 16 11 14 17 13 26 47 43 46 57 29 40 47 44 41 37 30 39 47 49 38 21 16 20 22 19 16 17 20 26 30 26 24 31 42 45 46 47 50 55
29 30 28 26 37 31 25 24 23 18 13 10 28 33 38 46 52 57 57 36 38 49 47 45 41 35 40 48 53 43 22 16 20 20 19 17 20 29 37 32 27 27 38 46 50 53 56 56 56
34 33 29 42 45 36 31 22 25 16 13 10 19 35 39 49 46 43 42 34 41 51 50 49 47 44 42 46 54 48 25 15 18 17 19 18 24 33 40 30 27 29 44 57 62 66 65 55 48
31 34 31 42 37 30 25 24 20 17 10 18 28 37 42 44 37 38 44 37 38 51 53 53 52 50 49 48 53 49 33 15 17 16 19 19 25 31 42 30 25 38 54 64 69 71 67 62 58
33 35 48 50 39 30 24 20 17 18 14 17 29 43 45 42 43 43 45 40 27 46 54 54 56 52 55 54 53 52 39 17 16 17 19 19 23 32 43 30 26 41 54 63 69 71 59 58 57
36 34 48 46 36 30 24 18 18 16 14 15 33 46 55 48 40 40 46 41 37 38 51 56 58 56 57 59 55 52 43 21 16 17 18 18 21 31 42 31 27 30 53 64 66 67 61 63 61
37 44 47 40 36 30 24 19 18 17 16 16 19 59 55 51 42 43 45 38 36 49 54 57 61 60 61 62 60 53 50 28 17 16 18 19 20 28 39 36 29 28 50 60 65 72 65 64 65
31 39 39 37 38 33 23 21 19 16 16 34 44 59 57 57 49 46 41 34 36 45 58 56 61 65 65 67 66 57 52 41 17 17 17 20 20 26 33 38 31 32 49 60 69 74 68 66 68
33 49 49 37 34 31 17 24 15 15 14 14 42 62 57 53 55 50 42 38 42 44 52 58 58 66 69 70 70 65 55 52 26 17 18 21 21 23 29 35 38 31 44 61 69 74 74 70 71
36 48 41 32 28 15 14 16 16 17 16 17 16 22 46 55 67 60 48 42 44 46 47 50 55 59 69 73 74 73 61 58 44 20 16 19 20 23 24 29 35 35 36 47 64 69 77 81 76
16 36 20 16 16 14 14 13 14 16 21 17 18 17 21 59 63 69 58 51 40 33 38 48 48 54 63 73 76 76 71 59 53 28 17 16 19 22 29 24 30 35 34 38 46 59 74 78 81
14 18 18 15 14 12 13 12 12 15 15 15 12 14 16 17 52 55 61 59 51 40 36 34 46 52 58 63 72 75 75 63 56 40 21 16 18 18 21 26 24 29 34 37 40 48 68 75 80
21 20 16 13 11 11 13 13 14 13 11 10 10 9 9 9 10 17 37 22 56 59 58 53 42 45 51 58 64 71 72 67 55 49 28 18 16 17 17 20 24 25 29 32 34 43 69 76 73
22 22 19 16 17 13 16 13 10 13 14 13 13 12 10 9 9 10 12 20 35 60 62 62 59 48 46 47 53 59 63 63 57 51 36 23 18 17 18 17 20 24 25 27 29 33 51 72 65
24 24 22 20 18 16 14 17 18 17 16 15 14 14 13 10 10 10 10 12 18 25 43 58 64 66 57 45 43 48 52 56 58 53 45 26 22 18 18 18 17 19 23 25 26 26 32 61 55
29 32 37 25 19 17 17 24 18 18 17 16 15 16 18 15 13 11 12 15 15 16 17 29 52 68 68 65 52 46 45 50 49 48 49 36 23 21 19 19 18 18 21 23 24 24 25 33 49
41 42 35 30 22 24 22 25 20 18 18 18 31 37 42 35 21 19 14 12 10 13 22 23 43 62 63 68 67 52 52 49 46 45 44 43 27 22 20 19 19 20 21 22 24 24 25 38 45
41 35 32 32 27 36 34 33 26 19 18 37 44 50 50 48 54 45 32 20 13 10 20 32 47 54 58 55 74 64 56 56 52 41 33 37 35 22 20 20 20 22 23 22 24 25 24 32 43
30 32 34 29 35 39 39 37 31 22 29 40 46 55 58 56 53 48 38 35 26 12 26 74 78 77 87 62 68 67 52 40 47 46 39 29 30 27 19 20 23 26 30 28 23 24 26 29 44
41 41 46 34 36 34 38 41 33 25 32 46 54 52 51 62 49 55 38 36 37 33 22 36 88 100 99 80 68 71 57 46 34 40 48 40 34 29 22 18 21 29 32 39 24 25 29 39 48
49 52 47 48 43 37 40 39 34 40 54 52 53 56 55 68 70 63 56 42 44 46 36 33 35 42 57 76 79 78 97 92 79 63 50 40 34 27 24 19 19 26 38 40 33 35 42 44 53
61 36 37 42 48 55 40 76 86 71 73 77 59 57 63 70 65 68 70 59 56 60 54 42 42 35 39 69 97 91 88 80 70 62 50 43 40 36 36 25 22 20 32 45 44 42 47 51 51
39 33 38 43 50 56 59 71 58 82 79 72 74 62 65 74 68 66 72 83 65 67 76 61 47 49 43 83 100 100 89 89 85 80 83 61 52 45 34 34 25 24 26 40 49 48 52 53 50
32 45 52 58 70 89 70 50 75 88 94 90 85 72 64 74 78 67 71 82 79 65 67 69 67 59 54 53 90 97 100 98 96 93 87 78 71 57 44 42 44 33 32 35 40 51 48 50 55
44 67 87 77 84 76 56 62 79 75 61 81 86 64 63 80 84 76 70 77 82 81 70 70 61 61 63 57 53 64 97 99 100 93 91 87 83 77 64 49 49 52 45 43 39 51 54 50 57
45 67 91 100 99 79 52 67 85 60 38 36 50 61 69 86 87 89 78 78 77 83 90 86 70 58 57 61 55 50 54 76 96 96 94 93 91 82 69 68 58 50 53 56 56 50 51 58 57
47 67 44 87 78 89 70 86 84 61 28 27 30 65 82 89 89 88 82 68 75 76 78 95 84 71 62 55 58 54 48 46 59 86 93 91 95 95 88 77 74 67 61 64 68 68 62 59 59
50 56 81 92 99 96 72 62 91 45 34 29 32 66 81 79 87 89 75 62 60 70 68 72 74 85 75 64 58 59 56 49 42 44 80 89 84 93 97 90 89 82 74 68 69 72 74 71 63
69 76 79 81 90 98 91 65 58 38 35 36 32 41 80 78 75 74 64 54 58 55 51 61 66 71 85 76 63 64 63 57 52 47 57 99 97 94 96 95 87 79 83 79 76 74 74 78 75
56 73 66 89 80 86 81 62 26 30 31 29 34 35 76 83 67 61 58 63 55 66 69 53 55 67 70 84 77 68 78 90 82 68 60 62 78 83 93 97 96 92 90 88 90 76 77 79 82

GFSSGP_850_rhum_276.txt.gz
RH
23 21 24 26 24 31 30 22 19 25 19 12 20 24 36 46 46 54 63 46 40 42 43 45 34 39 38 36 28 17 19 22 23 20 16 16 17 21 22 21 22 27 37 41 46 48 45 50 62
29 25 25 24 32 30 29 24 28 23 18 12 16 38 43 55 58 59 65 44 41 41 41 43 37 43 44 43 30 16 20 20 20 16 15 17 21 27 27 22 23 33 38 43 44 44 46 49 53
33 27 25 43 47 37 34 27 28 20 13 14 27 37 42 58 54 51 47 42 44 42 40 40 37 44 48 47 35 17 18 22 18 16 17 20 31 33 28 23 25 34 40 45 47 46 49 51 50
32 31 29 42 37 30 27 27 23 18 15 22 33 45 48 60 50 45 33 37 43 45 42 40 36 41 49 52 40 20 18 20 19 17 19 26 32 33 23 24 26 34 48 52 52 48 46 44 43
30 31 49 49 42 34 27 23 20 20 17 15 40 49 51 52 50 50 34 43 44 47 46 44 40 40 46 54 48 27 18 19 20 18 20 25 33 33 21 24 31 42 48 51 54 56 49 43 33
34 33 46 44 39 33 26 21 18 18 18 22 21 50 66 72 54 53 44 44 50 50 50 49 49 48 47 51 52 36 17 20 19 20 20 24 33 34 20 26 38 46 53 54 54 57 54 42 23
37 44 48 41 37 32 26 18 19 20 18 35 56 63 71 70 62 57 54 46 52 52 54 55 55 56 54 53 54 45 22 20 19 19 20 24 34 35 22 24 36 46 56 55 60 60 57 34 32
30 38 39 39 39 37 15 16 15 18 17 18 50 82 71 71 66 65 60 51 55 56 56 58 59 60 61 59 55 50 35 18 21 20 20 25 34 36 25 22 30 42 54 58 59 60 60 56 62
32 46 46 42 38 25 13 18 14 16 17 16 18 58 84 83 66 67 66 62 60 60 60 59 62 63 64 65 59 56 50 26 21 23 22 22 30 42 31 26 28 41 53 56 54 58 62 60 65
36 47 40 19 17 15 13 13 15 17 16 15 11 12 52 79 79 66 66 63 65 64 64 65 65 65 66 68 68 59 57 44 21 22 24 21 27 36 43 34 31 42 54 63 63 57 61 65 69
19 29 19 15 18 14 12 11 15 16 17 14 15 12 13 15 51 75 66 56 56 60 66 68 67 68 70 69 71 69 59 56 34 21 22 24 23 30 40 41 38 43 56 60 65 67 64 65 68
22 19 18 17 16 15 14 12 16 17 17 15 14 12 10 10 9 10 33 73 58 63 54 64 70 71 65 68 71 72 67 59 53 26 21 25 23 25 31 35 36 38 47 55 62 64 71 72 69
22 22 18 18 16 17 13 14 17 19 16 15 15 13 14 12 10 10 12 20 48 63 56 43 55 73 74 70 70 71 68 63 55 43 22 20 24 21 25 28 31 32 36 46 52 58 69 75 80
24 22 20 20 17 18 16 16 18 19 17 20 24 22 19 20 16 10 10 11 19 52 64 62 50 52 64 73 68 69 67 64 58 51 31 19 20 23 21 23 26 29 33 39 46 52 64 74 79
22 25 25 25 20 21 16 21 24 21 21 32 40 42 31 26 20 19 15 14 15 19 90 69 57 60 60 61 67 68 65 60 55 50 46 26 18 19 23 23 24 25 29 35 39 44 64 75 76
31 32 35 26 27 24 19 31 23 22 38 44 56 49 43 38 32 26 22 17 13 14 18 21 48 69 66 66 62 63 66 61 56 52 47 43 24 18 19 23 23 25 27 29 32 36 48 69 72
38 40 35 31 32 28 26 32 25 22 41 51 42 56 51 37 33 30 28 25 22 16 15 17 46 64 74 72 69 64 61 62 60 59 50 41 39 23 18 18 21 24 27 27 28 28 30 40 64
41 39 35 35 31 38 37 37 33 26 50 53 52 48 60 58 46 41 32 27 28 21 28 48 69 98 92 94 87 78 78 69 64 63 58 47 37 35 23 18 17 22 25 26 28 27 26 26 37
34 40 42 37 32 39 40 37 36 29 50 57 56 62 62 64 61 44 39 31 27 27 24 48 99 100 100 100 100 99 90 70 70 69 68 66 54 40 36 23 20 19 20 23 25 26 28 26 34
45 50 51 43 38 35 41 40 40 56 62 62 64 61 70 65 55 50 43 38 33 35 38 38 60 94 98 100 100 100 91 81 69 70 74 70 69 54 39 29 20 19 18 19 24 26 28 27 33
50 42 44 47 44 35 41 46 80 62 57 61 66 70 68 76 76 68 54 53 48 42 39 44 47 53 66 78 98 99 100 99 97 84 68 60 60 62 55 44 33 21 19 19 19 26 29 28 28
56 35 37 43 49 53 45 70 62 84 71 75 67 69 67 72 74 80 67 60 61 54 62 63 56 61 54 55 74 91 99 100 98 85 72 63 57 66 74 67 56 37 23 20 23 23 33 28 27
44 36 41 43 54 58 54 67 57 81 87 76 68 65 68 62 81 75 77 71 61 66 58 66 71 68 66 66 97 99 98 100 100 96 87 93 78 70 61 67 71 61 38 26 25 30 35 31 26
36 46 50 65 74 88 62 58 61 88 86 74 61 62 68 59 84 75 69 73 66 62 61 59 58 65 65 65 70 90 89 96 100 97 99 91 90 86 80 73 69 73 62 39 26 29 41 45 37
47 66 79 63 84 78 58 66 64 74 66 54 37 44 58 69 75 79 66 63 71 70 66 59 61 58 59 61 62 66 78 92 86 97 100 100 95 92 87 82 77 67 60 54 39 34 36 47 54
45 67 84 71 97 83 55 68 79 63 53 27 29 35 59 75 64 77 71 57 56 59 62 67 60 58 62 58 59 60 65 70 75 90 94 92 98 96 95 89 90 85 70 62 48 41 38 42 55
47 74 56 77 76 85 69 68 75 69 61 27 29 28 33 70 74 67 63 55 62 67 61 54 67 65 56 64 62 58 60 65 65 62 72 99 100 100 100 99 89 85 87 81 66 58 49 52 47
49 56 72 90 99 98 73 60 76 57 41 34 32 33 34 41 74 62 59 54 52 64 77 56 50 60 65 56 68 68 63 66 68 63 60 60 78 99 100 99 98 86 72 91 91 79 67 65 63
57 68 82 76 90 96 98 64 55 54 40 39 33 35 38 43 79 65 56 55 44 49 68 66 50 43 57 62 61 70 73 64 69 72 62 55 57 93 99 99 99 100 100 93 100 88 84 79 72
54 61 63 82 69 88 80 70 33 35 36 40 41 41 47 73 81 78 60 45 47 52 59 65 54 44 45 47 60 71 77 79 71 75 78 68 56 68 97 95 99 100 100 100 99 90 78 94 84

GFSSGP_850_rhum_282.txt.gz
RH
17 19 23 26 13 12 16 16 14 14 15 14 17 22 32 46 48 55 78 84 78 80 45 46 35 51 67 73 73 67 61 57 38 22 18 23 31 31 31 38 27 38 46 52 47 45 56 62 53
22 20 26 16 11 13 19 17 20 18 19 18 25 33 33 50 68 81 82 86 80 71 47 37 31 38 58 65 65 64 61 43 25 18 17 18 20 22 25 22 29 37 36 36 42 55 60 55 52
24 23 18 14 13 18 21 19 21 21 28 27 31 41 52 78 70 72 84 82 78 68 65 34 34 34 40 48 51 54 40 27 18 16 17 19 21 20 20 24 26 31 31 36 46 48 50 50 52
29 26 19 15 21 19 18 18 20 24 29 32 33 49 84 100 90 83 88 81 78 70 58 35 39 38 34 33 29 27 24 20 16 16 20 24 25 21 22 25 26 31 35 37 40 43 44 47 51
27 18 18 21 21 17 15 17 19 22 29 38 38 61 85 99 96 89 86 81 79 75 48 41 44 45 37 28 22 23 21 17 18 20 26 30 27 23 22 25 27 30 34 35 37 38 38 39 44
17 17 20 22 19 14 13 16 16 19 24 36 47 62 95 97 98 96 88 88 90 86 42 43 47 49 46 33 21 22 20 18 19 25 31 31 27 24 25 28 33 30 31 31 27 26 27 28 31
16 14 20 22 19 15 12 14 15 15 16 18 50 55 83 99 99 99 96 94 94 81 52 44 47 50 50 43 28 24 22 20 22 28 34 32 26 26 28 33 40 35 31 29 22 20 21 20 22
24 17 23 22 16 16 13 14 14 13 14 15 19 26 47 82 98 99 99 95 95 96 69 54 49 51 52 49 38 28 26 23 26 32 36 34 26 28 35 35 46 44 41 33 20 18 19 20 20
26 16 18 17 14 15 13 13 14 12 14 14 16 18 21 42 99 99 94 95 97 97 96 90 84 52 50 53 50 36 31 28 29 35 38 39 48 32 40 53 50 51 50 41 36 42 45 42 37
17 14 15 12 12 13 14 13 13 14 15 18 22 27 28 34 46 84 97 89 85 96 99 98 91 80 54 80 55 51 34 32 35 41 37 69 73 74 72 43 52 57 55 48 50 55 59 59 58
15 16 13 13 12 12 13 15 17 14 19 27 31 29 30 32 38 42 65 97 96 97 96 80 78 91 75 90 81 85 67 69 60 56 51 86 79 59 69 57 53 58 61 62 56 53 62 86 82
17 14 14 13 12 14 14 17 20 24 28 30 30 31 32 34 38 42 42 51 84 100 98 99 98 92 67 95 90 91 89 80 59 39 30 86 85 73 69 66 75 86 77 82 79 80 83 69 74
15 15 14 14 15 15 16 20 22 28 27 28 29 30 34 35 38 44 45 47 51 51 95 99 96 99 84 85 99 94 93 82 82 50 24 61 76 86 80 73 74 78 79 84 83 78 86 76 70
16 16 16 16 15 15 13 16 21 32 29 29 30 30 32 35 39 44 44 47 45 40 26 45 90 96 99 90 93 98 99 95 66 67 46 22 40 77 82 80 80 75 77 80 82 79 80 84 85
16 15 17 18 14 15 16 19 26 27 29 32 31 30 29 35 39 48 51 50 45 40 32 29 36 59 99 100 91 81 93 99 100 79 57 42 21 28 56 81 82 75 78 84 84 87 86 79 84
12 12 11 18 15 14 13 24 32 30 26 30 31 32 32 33 39 48 55 56 55 32 26 26 36 52 51 100 100 95 84 92 99 100 92 62 47 25 23 64 78 78 78 82 79 76 76 76 76
11 13 14 17 17 13 11 18 34 32 29 30 31 32 34 34 38 49 54 59 59 41 36 35 32 40 51 68 98 99 98 95 91 99 96 81 68 51 29 44 60 72 78 80 77 75 72 68 69
15 15 18 18 19 14 15 22 32 34 33 33 33 33 35 37 39 47 53 62 61 44 46 47 54 44 66 74 90 95 98 100 99 96 98 94 83 74 58 42 48 50 70 73 79 78 74 69 63
14 13 17 18 19 17 19 26 33 37 37 37 36 33 33 37 39 44 53 58 63 69 45 49 69 54 55 70 82 96 99 99 98 99 100 95 89 93 82 66 57 51 63 64 76 82 82 75 68
13 13 19 18 18 19 20 28 31 37 42 39 37 35 37 39 40 43 48 56 62 67 73 60 63 77 80 74 80 76 85 94 98 99 99 99 96 94 100 90 80 70 65 66 65 61 76 72 70
17 18 19 18 20 21 21 27 33 36 37 31 34 32 36 42 45 45 48 52 57 63 68 71 75 71 78 68 86 85 75 81 84 98 100 98 99 98 92 100 99 95 74 70 58 47 31 62 68
18 19 21 19 19 18 24 15 28 34 27 23 24 27 31 38 41 47 51 52 55 64 68 67 70 75 70 61 79 79 98 92 90 100 99 98 99 95 95 100 100 100 99 84 74 49 44 59 54
21 24 24 23 21 24 24 22 30 29 28 22 21 24 28 33 40 44 50 52 53 63 68 66 62 66 78 73 70 88 92 90 86 94 91 99 94 98 97 97 93 99 100 100 91 88 62 56 62
24 26 27 28 27 34 31 25 24 27 30 24 22 24 27 30 37 43 45 49 50 56 62 69 60 57 70 78 86 89 89 74 71 80 91 96 100 99 96 92 88 98 100 100 99 100 96 82 69
23 28 41 35 42 36 33 25 28 28 24 26 24 26 28 29 33 37 45 48 52 55 56 63 60 54 60 70 74 91 95 91 92 80 78 92 98 89 100 97 86 95 91 91 85 98 100 99 97
26 30 60 57 26 19 21 18 49 24 27 31 30 31 25 26 30 34 45 52 53 54 56 64 60 52 56 65 66 79 92 92 92 96 72 74 93 99 94 92 99 98 97 90 74 84 99 100 99
27 45 38 51 38 37 21 26 33 20 23 25 23 24 31 35 35 39 52 60 55 55 56 69 64 54 57 60 64 64 76 91 96 97 96 78 67 73 77 99 100 99 89 98 70 66 93 99 100
32 39 50 58 61 54 20 21 26 23 24 25 34 37 39 45 48 52 57 66 59 56 55 67 66 59 59 65 51 43 52 59 89 98 98 96 96 73 65 77 100 100 94 94 87 87 77 94 94
31 39 48 52 53 53 32 17 21 25 29 36 40 42 44 50 52 54 62 66 60 58 56 62 65 64 62 62 64 28 24 31 50 88 98 98 96 97 72 71 78 99 100 100 94 100 96 98 92
28 32 34 58 70 45 36 25 16 25 31 36 42 43 45 49 50 54 64 60 59 60 58 62 64 61 64 63 62 60 36 26 29 32 67 96 98 96 99 94 79 79 88 99 100 98 99 99 89

GFSSGP_850_rhum_288.txt.gz
RH
15 29 25 22 21 16 11 11 8 12 16 14 38 44 53 62 38 82 62 69 43 42 47 44 48 59 68 77 70 53 54 38 26 30 39 46 56 65 51 42 62 65 54 47 53 52 46 47 50
17 24 26 20 19 14 16 12 17 18 18 39 52 50 58 64 64 62 62 67 76 71 36 36 42 42 59 75 68 61 56 36 25 31 36 38 38 49 40 49 58 58 42 49 53 44 44 47 53
22 26 24 15 17 17 19 16 19 18 20 34 52 67 81 88 56 58 57 58 66 73 32 36 43 43 48 70 68 66 50 31 21 26 29 29 35 35 51 46 43 44 47 51 47 45 49 52 53
24 22 19 17 20 18 19 24 32 40 58 50 50 62 88 88 64 55 53 52 66 54 35 37 40 46 50 59 65 52 35 26 20 19 24 28 30 37 44 42 41 44 45 44 47 49 50 50 51
20 18 14 17 18 16 15 22 30 47 67 75 68 78 80 79 75 56 56 57 68 50 39 40 40 38 36 40 44 34 26 20 19 22 27 28 31 39 44 40 43 46 45 45 46 45 47 47 48
18 13 15 17 17 15 14 16 20 24 70 82 67 60 71 84 74 76 64 68 76 78 44 44 42 38 31 26 27 27 23 19 20 27 32 28 31 37 42 46 45 46 46 46 46 45 45 43 43
16 13 14 15 18 16 14 17 19 23 22 26 38 44 59 73 84 83 70 71 75 84 72 56 47 46 39 29 24 23 21 22 25 31 32 29 31 36 38 46 46 45 40 40 42 40 39 36 34
15 12 13 14 17 16 15 18 21 22 22 25 28 36 53 67 90 85 78 78 78 81 81 86 76 64 49 42 30 24 22 21 27 32 33 28 29 36 43 48 51 47 40 36 33 32 31 29 28
12 16 16 16 16 15 14 19 20 22 23 24 25 28 40 54 86 88 83 84 85 83 81 87 94 99 77 62 46 34 26 23 24 30 34 30 27 38 50 50 52 48 43 32 27 25 24 23 22
9 14 14 13 14 16 16 17 20 21 22 23 23 26 30 34 41 55 71 79 89 92 92 87 92 94 93 94 76 63 41 27 26 29 34 49 82 48 69 63 50 50 46 32 30 34 35 32 24
10 14 11 11 14 17 18 19 21 21 22 23 23 25 30 33 36 37 43 50 61 72 95 87 86 87 88 97 98 77 76 69 55 70 57 60 75 65 80 70 60 52 51 36 46 51 72 76 74
11 10 11 12 13 16 19 20 21 22 22 21 24 25 28 32 35 36 38 44 53 57 52 86 93 86 84 84 90 92 94 80 73 69 69 66 82 70 70 74 63 50 59 54 50 54 69 79 80
11 11 12 12 14 16 18 20 20 20 21 20 20 24 27 31 34 35 36 40 52 60 44 44 67 68 87 86 82 85 86 94 87 73 71 63 80 80 77 61 62 62 72 75 76 72 70 80 72
11 11 10 10 12 14 17 17 18 19 19 19 20 21 24 29 34 36 36 39 51 58 64 50 61 31 33 63 84 83 81 85 93 84 74 75 68 76 77 64 60 60 64 67 72 69 67 70 75
10 10 9 9 9 10 16 21 18 18 19 20 21 22 24 27 32 36 38 38 50 58 65 65 70 31 26 32 49 76 91 84 80 92 89 86 81 63 73 76 70 64 64 66 66 69 68 70 68
9 10 13 9 9 8 8 27 19 18 19 20 21 23 25 28 33 37 42 42 49 59 62 65 67 48 36 37 36 53 69 100 94 94 91 90 94 86 63 72 75 72 66 65 67 70 73 69 70
9 11 13 11 8 7 9 24 20 20 21 21 21 23 24 26 30 36 42 45 50 57 56 60 63 54 52 46 43 66 62 65 92 100 98 96 95 95 94 72 69 71 70 67 66 70 74 73 70
9 10 12 13 11 11 19 23 21 22 23 22 23 25 26 26 29 34 39 45 49 57 57 53 56 58 59 44 51 53 57 67 87 98 100 99 99 100 100 97 76 65 65 69 69 68 71 69 67
7 9 11 10 10 12 17 23 23 23 23 22 22 25 28 28 29 31 34 39 45 52 58 56 53 55 58 47 68 57 48 73 81 92 94 97 97 100 97 92 100 88 63 62 68 71 71 70 66
8 10 12 11 11 14 16 22 22 24 22 22 20 22 25 28 28 31 34 36 38 47 53 57 53 53 54 52 69 65 72 74 76 76 60 81 100 99 93 83 75 92 96 65 64 64 73 72 68
12 13 11 12 11 12 12 22 24 22 20 17 18 20 22 25 28 30 32 36 38 44 48 55 55 50 52 46 49 52 64 62 68 78 86 68 64 85 96 100 93 85 99 97 84 64 64 76 76
14 10 10 10 14 16 12 21 23 23 20 15 16 19 22 24 24 26 28 30 36 43 47 52 55 48 53 50 44 50 73 77 81 80 83 86 84 73 81 84 98 84 85 74 99 90 70 66 76
18 12 14 12 15 15 12 11 23 18 18 18 15 17 19 21 22 22 24 26 30 41 46 51 54 48 49 54 52 51 51 68 76 82 79 86 85 81 91 85 98 86 98 99 83 83 94 84 75
18 17 17 17 18 30 17 12 24 20 16 13 16 17 20 22 23 27 27 26 27 40 45 52 55 50 49 55 59 59 49 60 65 74 83 79 85 80 96 75 74 95 96 90 95 78 94 94 94
17 26 63 42 46 52 20 17 31 19 16 16 18 20 20 26 30 31 32 33 40 44 46 52 59 54 52 57 59 61 58 59 64 72 84 86 84 82 84 89 77 90 82 95 100 97 98 95 90
18 26 78 75 42 24 18 14 45 15 15 18 20 18 24 29 34 34 35 37 41 43 45 53 58 56 54 60 62 60 57 64 67 68 78 80 84 77 90 85 92 95 93 97 99 100 100 96 95
23 38 27 42 31 31 11 26 21 13 14 14 17 22 26 30 34 34 37 46 47 44 44 52 57 57 55 58 62 60 50 59 66 69 78 80 83 86 81 91 99 96 98 100 99 94 100 100 98
32 24 51 78 72 60 23 17 24 19 15 15 19 24 28 31 33 33 35 41 44 45 47 50 54 56 58 59 57 60 61 54 56 61 70 77 77 86 84 89 90 99 98 98 100 85 86 96 100
29 34 43 43 47 62 38 22 16 17 16 19 20 25 29 30 32 33 35 39 41 42 44 47 50 55 57 59 56 59 62 66 60 56 60 67 74 81 85 89 74 69 100 99 97 76 70 70 85
20 27 37 81 79 44 37 30 15 19 20 19 22 24 27 30 32 31 33 35 39 40 42 45 47 50 54 57 56 58 61 66 63 61 56 54 69 75 82 90 75 67 67 90 91 85 70 72 71